• In United Kingdom
  • List of Countries
  • For 7 days
  • Water Temperature
  • Satellite Maps
  • Weather Map
  • Weather Widgets
  • user-avatar
    Login

    Hourly Weather Vitebsk

    Today, 18 August, Friday

    Time Temperature Precipitation Wind Pressure Humidity
    00:00 +19°C° 0.5 mm 2 mps 751 mmHg 90%
    01:00 +18°C° 0.5 mm 2 mps 751 mmHg 91%
    02:00 +18°C° 0 mm 2 mps 750 mmHg 91%
    03:00 +18°C° 0.2 mm 2 mps 750 mmHg 92%
    04:00 +18°C° 0.2 mm 2 mps 750 mmHg 93%
    05:00 +17°C° 0.2 mm 2 mps 750 mmHg 93%
    06:00 +19°C° 0 mm 3 mps 750 mmHg 89%
    07:00 +20°C° 0 mm 3 mps 751 mmHg 84%
    08:00 +22°C° 0 mm 3 mps 751 mmHg 80%
    09:00 +25°C° 0 mm 3 mps 751 mmHg 73%
    10:00 +26°C° 0 mm 4 mps 751 mmHg 66%
    11:00 +28°C° 0 mm 4 mps 751 mmHg 59%
    12:00 +29°C° 0 mm 4 mps 750 mmHg 56%
    13:00 +29°C° 0 mm 4 mps 750 mmHg 53%
    14:00 +30°C° 0 mm 5 mps 750 mmHg 50%
    15:00 +29°C° 0 mm 4 mps 750 mmHg 54%
    16:00 +29°C° 0 mm 3 mps 750 mmHg 57%
    17:00 +28°C° 0 mm 3 mps 749 mmHg 61%
    18:00 +27°C° 0 mm 3 mps 749 mmHg 65%
    19:00 +25°C° 0 mm 3 mps 749 mmHg 68%
    20:00 +22°C° 0 mm 3 mps 749 mmHg 72%
    21:00 +22°C° 0 mm 3 mps 749 mmHg 71%
    22:00 +21°C° 0 mm 3 mps 749 mmHg 70%
    23:00 +20°C° 0 mm 3 mps 749 mmHg 69%

    Tomorrow, 19 August, Saturday

    Time Temperature Precipitation Wind Pressure Humidity
    00:00 +20°C° 0 mm 3 mps 749 mmHg 70%
    01:00 +19°C° 0 mm 3 mps 749 mmHg 70%
    02:00 +19°C° 0 mm 3 mps 749 mmHg 70%
    03:00 +18°C° 0 mm 3 mps 749 mmHg 72%
    04:00 +18°C° 0 mm 3 mps 749 mmHg 74%
    05:00 +18°C° 0 mm 3 mps 749 mmHg 76%
    06:00 +19°C° 0 mm 3 mps 749 mmHg 73%
    07:00 +21°C° 0 mm 3 mps 749 mmHg 70%
    08:00 +23°C° 0 mm 4 mps 749 mmHg 68%
    09:00 +25°C° 0 mm 4 mps 749 mmHg 63%
    10:00 +27°C° 0 mm 4 mps 749 mmHg 58%
    11:00 +29°C° 0 mm 4 mps 749 mmHg 54%
    12:00 +29°C° 0 mm 4 mps 749 mmHg 51%
    13:00 +30°C° 0 mm 4 mps 749 mmHg 48%
    14:00 +32°C° 0 mm 4 mps 749 mmHg 45%
    15:00 +30°C° 0 mm 4 mps 749 mmHg 49%
    16:00 +30°C° 0 mm 4 mps 748 mmHg 53%
    17:00 +29°C° 0 mm 3 mps 748 mmHg 57%
    18:00 +27°C° 0 mm 3 mps 748 mmHg 59%
    19:00 +26°C° 0 mm 3 mps 748 mmHg 61%
    20:00 +24°C° 0 mm 3 mps 748 mmHg 64%
    21:00 +24°C° 0 mm 3 mps 748 mmHg 62%
    22:00 +22°C° 0 mm 4 mps 748 mmHg 61%
    23:00 +22°C° 0 mm 4 mps 748 mmHg 60%

    Day after tomorrow, 20 August, Sunday

    Time Temperature Precipitation Wind Pressure Humidity
    00:00 +22°C° 0 mm 4 mps 748 mmHg 56%
    01:00 +22°C° 0 mm 4 mps 748 mmHg 53%
    02:00 +23°C° 0 mm 4 mps 748 mmHg 50%
    03:00 +22°C° 0 mm 4 mps 748 mmHg 50%
    04:00 +22°C° 0 mm 4 mps 748 mmHg 50%
    05:00 +22°C° 0 mm 4 mps 748 mmHg 50%
    06:00 +22°C° 0 mm 4 mps 748 mmHg 53%
    07:00 +22°C° 0 mm 4 mps 748 mmHg 57%
    08:00 +22°C° 0 mm 4 mps 748 mmHg 60%
    09:00 +25°C° 0 mm 4 mps 748 mmHg 59%
    10:00 +26°C° 0 mm 4 mps 748 mmHg 57%
    11:00 +27°C° 0 mm 5 mps 748 mmHg 55%
    12:00 +27°C° 0 mm 5 mps 748 mmHg 55%
    13:00 +28°C° 0 mm 5 mps 748 mmHg 54%
    14:00 +28°C° 0 mm 5 mps 748 mmHg 53%
    15:00 +28°C° 0 mm 5 mps 748 mmHg 55%
    16:00 +28°C° 0 mm 4 mps 748 mmHg 57%
    17:00 +28°C° 0 mm 4 mps 748 mmHg 59%
    18:00 +26°C° 0.1 mm 4 mps 748 mmHg 61%
    19:00 +25°C° 0.1 mm 4 mps 748 mmHg 63%
    20:00 +22°C° 0.1 mm 4 mps 748 mmHg 64%
    21:00 +22°C° 0 mm 4 mps 748 mmHg 64%
    22:00 +22°C° 0 mm 4 mps 748 mmHg 63%
    23:00 +21°C° 0 mm 3 mps 747 mmHg 62%

    21 August, Monday

    Time Temperature Precipitation Wind Pressure Humidity
    00:00 +21°C° 0 mm 3 mps 747 mmHg 64%
    01:00 +20°C° 0 mm 3 mps 747 mmHg 66%
    02:00 +20°C° 0 mm 3 mps 747 mmHg 68%
    03:00 +20°C° 0 mm 3 mps 746 mmHg 70%
    04:00 +19°C° 0 mm 2 mps 746 mmHg 73%
    05:00 +19°C° 0 mm 2 mps 746 mmHg 75%
    06:00 +20°C° 0 mm 3 mps 746 mmHg 74%
    07:00 +20°C° 0 mm 3 mps 745 mmHg 74%
    08:00 +21°C° 0 mm 4 mps 745 mmHg 73%
    09:00 +22°C° 0 mm 4 mps 745 mmHg 71%
    10:00 +22°C° 0 mm 4 mps 745 mmHg 69%
    11:00 +24°C° 0 mm 3 mps 745 mmHg 67%
    12:00 +25°C° 0.1 mm 3 mps 745 mmHg 66%
    13:00 +25°C° 0.1 mm 3 mps 744 mmHg 65%
    14:00 +26°C° 0.1 mm 3 mps 744 mmHg 64%
    15:00 +26°C° 0.6 mm 3 mps 744 mmHg 67%
    16:00 +25°C° 0.6 mm 3 mps 743 mmHg 71%
    17:00 +25°C° 0.6 mm 3 mps 743 mmHg 74%
    18:00 +22°C° 1.6 mm 3 mps 743 mmHg 80%
    19:00 +20°C° 1.6 mm 3 mps 743 mmHg 86%
    20:00 +18°C° 1.6 mm 3 mps 743 mmHg 93%
    21:00 +18°C° 0.4 mm 3 mps 743 mmHg 94%
    22:00 +17°C° 0.4 mm 3 mps 743 mmHg 95%
    23:00 +16°C° 0.4 mm 2 mps 743 mmHg 97%

    22 August, Tuesday

    Time Temperature Precipitation Wind Pressure Humidity
    00:00 +16°C° 0.1 mm 2 mps 742 mmHg 97%
    01:00 +16°C° 0.1 mm 2 mps 742 mmHg 97%
    02:00 +16°C° 0.1 mm 2 mps 742 mmHg 97%
    03:00 +16°C° 0.2 mm 2 mps 742 mmHg 97%
    04:00 +16°C° 0.2 mm 3 mps 741 mmHg 97%
    05:00 +16°C° 0.2 mm 3 mps 741 mmHg 97%
    06:00 +16°C° 0.6 mm 3 mps 741 mmHg 96%
    07:00 +16°C° 0.6 mm 3 mps 741 mmHg 95%
    08:00 +17°C° 0.6 mm 3 mps 741 mmHg 95%
    09:00 +17°C° 1.1 mm 3 mps 741 mmHg 94%
    10:00 +17°C° 1.1 mm 3 mps 741 mmHg 93%
    11:00 +18°C° 1.1 mm 3 mps 740 mmHg 93%
    12:00 +18°C° 0.5 mm 3 mps 740 mmHg 93%
    13:00 +18°C° 0.5 mm 3 mps 740 mmHg 93%
    14:00 +18°C° 0.5 mm 3 mps 740 mmHg 92%
    15:00 +18°C° 0.2 mm 3 mps 740 mmHg 92%
    16:00 +17°C° 0.2 mm 3 mps 740 mmHg 92%
    17:00 +17°C° 0.2 mm 3 mps 740 mmHg 92%
    18:00 +17°C° 0.1 mm 3 mps 740 mmHg 93%
    19:00 +16°C° 0.1 mm 3 mps 740 mmHg 94%
    20:00 +14°C° 0.1 mm 3 mps 740 mmHg 95%
    21:00 +15°C° 0 mm 2 mps 740 mmHg 95%
    22:00 +15°C° 0 mm 2 mps 740 mmHg 96%
    23:00 +15°C° 0 mm 2 mps 740 mmHg 96%

    23 August, Wednesday

    Time Temperature Precipitation Wind Pressure Humidity
    00:00 +15°C° 0 mm 2 mps 740 mmHg 96%
    01:00 +15°C° 0 mm 2 mps 740 mmHg 96%
    02:00 +15°C° 0 mm 2 mps 740 mmHg 96%
    03:00 +14°C° 0.3 mm 3 mps 740 mmHg 96%
    04:00 +14°C° 0.3 mm 3 mps 740 mmHg 96%
    05:00 +14°C° 0.3 mm 3 mps 740 mmHg 97%
    06:00 +14°C° 0.8 mm 3 mps 740 mmHg 97%
    07:00 +14°C° 0.8 mm 3 mps 740 mmHg 96%
    08:00 +15°C° 0.8 mm 4 mps 740 mmHg 96%
    09:00 +15°C° 0.3 mm 4 mps 740 mmHg 95%
    10:00 +15°C° 0.3 mm 4 mps 740 mmHg 94%
    11:00 +15°C° 0.3 mm 4 mps 741 mmHg 92%
    12:00 +17°C° 0.2 mm 4 mps 741 mmHg 91%
    13:00 +17°C° 0.2 mm 4 mps 741 mmHg 90%
    14:00 +16°C° 0.2 mm 5 mps 741 mmHg 89%
    15:00 +16°C° 0.1 mm 5 mps 741 mmHg 87%
    16:00 +16°C° 0.1 mm 5 mps 741 mmHg 86%
    17:00 +16°C° 0.1 mm 5 mps 741 mmHg 84%
    18:00 +17°C° 0 mm 4 mps 741 mmHg 86%
    19:00 +15°C° 0 mm 4 mps 741 mmHg 88%
    20:00 +14°C° 0 mm 3 mps 741 mmHg 90%
    21:00 +14°C° 0 mm 4 mps 741 mmHg 89%
    22:00 +14°C° 0 mm 4 mps 741 mmHg 88%
    23:00 +14°C° 0 mm 5 mps 741 mmHg 88%
    Show more